BEIJING 1 1 28890U 05043A 26236.31315700 -.00000049 00000+0 28774-7 0 9996 2 28890 98.2998 9.9394 0015851 70.2542 290.0368 14.63566258110611 HUANJING 1A (HJ-1A) 1 33320U 08041A 26236.26464294 .00001476 00000+0 18250-3 0 9996 2 33320 97.6749 219.4986 0017281 276.5207 83.4040 14.84128135968506 HUANJING 1B (HJ-1B) 1 33321U 08041B 26236.26515481 .00001517 00000+0 18908-3 0 9998 2 33321 97.6582 222.4619 0035388 322.3983 37.4758 14.83433441968501 YAOGAN-4 1 33446U 08061A 26236.03206059 .00000707 00000+0 92793-4 0 9996 2 33446 97.9308 169.0475 0013458 204.3917 155.6662 14.83310719955723 DEIMOS-1 1 35681U 09041A 26236.28322255 .00000687 00000+0 10853-3 0 9995 2 35681 97.7488 30.5952 0001537 36.2151 323.9163 14.75297570916927 UK-DMC 2 1 35683U 09041C 26236.28467521 .00000817 00000+0 12548-3 0 9991 2 35683 97.8919 9.6231 0001708 75.2762 284.8637 14.76117670916617 DMC3-FM1 1 40715U 15032A 26236.29273559 .00000021 00000+0 82659-5 0 9996 2 40715 97.6369 98.7676 0005307 173.2499 186.8789 14.85798281600020 DMC3-FM2 1 40716U 15032B 26236.24713234 .00000604 00000+0 75326-4 0 9990 2 40716 97.6421 100.3433 0005660 180.0338 180.0879 14.85808104600012 DMC3-FM3 1 40717U 15032C 26236.27096300 .00000722 00000+0 88943-4 0 9992 2 40717 97.6472 102.1616 0004840 176.7152 183.4097 14.85798439600026